Location: New York
(40.7127°N, 74.0060°W)
Time: 17:56:07
(UTC-04:00)

UNISAT 6 - Visible Passes

Search period start: 24 April 2024 00:00
Search period end: 04 May 2024 00:00
Orbit: 593 x 669 km, 97.7° (Epoch: 24 April)

Date Brightness Start Highest point End Pass type
(mag) Time Alt. Az. Time Alt. Az. Time Alt. Az.
24 Apr ? 03:39:03 10° E 03:41:18 14° ENE 03:43:33 10° NNE visible
24 Apr ? 05:12:55 10° S 05:17:13 54° W 05:21:28 10° NNW visible
25 Apr ? 03:58:28 10° ESE 04:01:51 22° ENE 04:05:11 10° NNE visible
26 Apr ? 04:18:28 10° SE 04:22:26 36° ENE 04:26:23 10° N visible
27 Apr ? 04:38:48 10° SSE 04:43:05 62° ENE 04:47:19 10° N visible
28 Apr ? 03:27:54 10° ENE 03:28:01 10° ENE 03:28:08 10° ENE visible
28 Apr ? 04:59:25 10° S 05:03:45 77° WSW 05:08:03 10° NNW visible
29 Apr ? 03:45:46 10° ESE 03:48:27 16° ENE 03:51:08 10° NNE visible
29 Apr ? 05:20:20 10° S 05:24:28 44° W 05:28:33 10° NNW visible
30 Apr ? 04:05:22 10° SE 04:08:56 26° ENE 04:12:30 10° NNE visible
01 May ? 04:25:24 10° SE 04:29:29 43° ENE 04:33:30 10° N visible
02 May ? 04:45:46 10° SSE 04:50:02 75° ENE 04:54:17 10° N visible
03 May ? 03:33:15 10° E 03:34:50 12° ENE 03:36:23 10° NE visible
03 May ? 05:06:24 10° S 05:10:39 63° W 05:14:52 10° NNW visible
